Tracking 25648 objects as of 16-May-2022
HD Live streaming from Space Station
objects crossing your sky now

FLOCK 4X 5

Track FLOCK 4X 5 now!
10-day predictions


NORAD ID: 51004
Int'l Code: 2022-002W
Perigee: 520.8 km
Apogee: 538.4 km
Inclination: 97.5 °
Period: 95.1 minutes
Semi major axis: 6900 km
RCS: Unknown
Launch date: January 13, 2022
Source: United States (US)
Launch site: AIR FORCE EASTERN TEST RANGE (AFETR)
aabbcc
Your satellite tracking list
Your tracking list is empty




NASA's NSSDC Master Catalog

Two Line Element Set (TLE):
1 51004U 22002W   22135.67306554  .00022089  00000-0  11980-2 0  9997
2 51004  97.4860 203.3315 0012778 172.0167 188.1271 15.14511048 18469
Source of the keplerian elements: AFSPC